User: anonymous   Login
Location: Theydon Bois
(51.6750°N, 0.1050°E)
Time: 15:07:27
(UTC+00:00)
Language:

Cosmos-2242 - Orbit

View from above orbital plane
View from above orbital plane
View from above satellite
View from above satellite

Ground track
Ground track

The orbit data is extracted from the following two-line orbital elements,

1 22626U 93024A   17347.78467493  .00000224  00000-0  21798-4 0  9995
2 22626  82.5229 232.4904 0017604 243.1480 116.7938 14.87747638332853
Epoch (UTC): 13 December 2017 18:49:55
Eccentricity: 0.0017604
inclination: 82.5229°
perigee height: 592 km
apogee height: 617 km
right ascension of ascending node: 232.4904°
argument of perigee: 243.1480°
revolutions per day: 14.87747638
mean anomaly at epoch: 116.7938°
orbit number at epoch: 33285

The dashed part of the orbit path shows where the satellite is in the earth's shadow,  

DLR